Time,TemperatureF,DewpointF,PressureIn,WindDirection,WindDirectionDegrees,WindSpeedMPH,WindSpeedGustMPH,Humidity,HourlyPrecipIn,Conditions,Clouds,dailyrainin,SolarRadiationWatts/m^2,SoftwareType,DateUTC
2013-01-21 00:29:00,26.8,14.0,29.92,WSW,257,7.0,17.0,58,0.00,CLR,,0.00,0.0,WeatherDisplay:10.37,2013-01-21 05:29:00,
2013-01-21 00:59:00,26.4,14.4,29.92,WSW,256,3.0,12.0,60,0.00,CLR,,0.00,0.0,WeatherDisplay:10.37,2013-01-21 05:59:00,
2013-01-21 01:29:00,26.1,14.5,29.93,West,274,3.0,12.0,61,0.00,CLR,,0.00,0.0,WeatherDisplay:10.37,2013-01-21 06:29:00,
2013-01-21 01:59:00,25.6,13.2,29.95,West,273,3.0,12.0,59,0.00,CLR,,0.00,0.0,WeatherDisplay:10.37,2013-01-21 06:59:00,
2013-01-21 02:29:00,24.8,9.6,29.97,West,274,7.0,18.0,52,0.00,CLR,,0.00,0.0,WeatherDisplay:10.37,2013-01-21 07:29:00,
2013-01-21 02:59:00,24.0,8.0,29.98,WSW,257,1.0,14.0,50,0.00,CLR,,0.00,0.0,WeatherDisplay:10.37,2013-01-21 07:59:00,
2013-01-21 03:29:00,23.4,7.5,29.99,WSW,258,5.0,13.0,50,0.00,CLR,,0.00,0.0,WeatherDisplay:10.37,2013-01-21 08:29:00,
2013-01-21 03:59:00,22.9,7.0,30.00,WNW,298,0.0,16.0,50,0.00,CLR,,0.00,0.0,WeatherDisplay:10.37,2013-01-21 08:59:00,
2013-01-21 04:29:00,22.3,7.8,30.01,WNW,285,1.0,13.0,53,0.00,CLR,,0.00,0.0,WeatherDisplay:10.37,2013-01-21 09:29:00,
2013-01-21 04:59:00,21.5,7.8,30.01,WSW,245,1.0,7.0,55,0.00,CLR,,0.00,0.0,WeatherDisplay:10.37,2013-01-21 09:59:00,
2013-01-21 05:29:00,20.9,6.4,30.02,West,264,0.0,5.0,53,0.00,CLR,,0.00,0.0,WeatherDisplay:10.37,2013-01-21 10:29:00,
2013-01-21 05:59:00,20.2,7.0,30.03,West,264,0.0,2.0,56,0.00,CLR,,0.00,0.0,WeatherDisplay:10.37,2013-01-21 10:59:00,
2013-01-21 06:29:00,19.7,6.9,30.04,West,264,0.0,1.0,57,0.00,CLR,,0.00,0.0,WeatherDisplay:10.37,2013-01-21 11:29:00,
2013-01-21 06:59:00,19.2,6.4,30.05,West,264,0.0,3.0,57,0.00,OVC,,0.00,0.0,WeatherDisplay:10.37,2013-01-21 11:59:00,
2013-01-21 07:29:00,18.9,8.0,30.05,West,274,0.0,3.0,62,0.00,BKN,,0.00,14.0,WeatherDisplay:10.37,2013-01-21 12:29:00,
2013-01-21 07:59:00,20.2,8.5,30.06,SW,230,1.0,4.0,60,0.00,CLR,,0.00,90.0,WeatherDisplay:10.37,2013-01-21 12:59:00,
2013-01-21 08:29:00,21.5,8.2,30.06,WSW,245,0.0,3.0,56,0.00,CLR,,0.00,251.0,WeatherDisplay:10.37,2013-01-21 13:29:00,
2013-01-21 08:59:00,23.7,8.6,30.06,SW,235,1.0,7.0,52,0.00,CLR,,0.00,329.0,WeatherDisplay:10.37,2013-01-21 13:59:00,
2013-01-21 09:29:00,23.9,7.9,30.07,WSW,247,0.0,7.0,50,0.00,CLR,,0.00,359.0,WeatherDisplay:10.37,2013-01-21 14:29:00,
2013-01-21 09:59:00,24.5,8.1,30.09,West,273,2.0,7.0,49,0.00,FEW,,0.00,185.0,WeatherDisplay:10.37,2013-01-21 14:59:00,
2013-01-21 10:29:00,24.7,8.2,30.08,SSW,195,1.0,10.0,49,0.00,SCT,,0.00,192.0,WeatherDisplay:10.37,2013-01-21 15:29:00,
2013-01-21 10:59:00,25.0,8.9,30.07,SSW,212,1.0,6.0,50,0.00,FEW,,0.00,336.0,WeatherDisplay:10.37,2013-01-21 15:59:00,
2013-01-21 11:29:00,25.6,9.0,30.04,SSW,207,0.0,10.0,49,0.00,SCT,,0.00,279.0,WeatherDisplay:10.37,2013-01-21 16:29:00,
2013-01-21 11:59:00,25.8,9.2,30.03,West,266,1.0,7.0,49,0.00,FEW,,0.00,345.0,WeatherDisplay:10.37,2013-01-21 16:59:00,
2013-01-21 12:29:00,26.8,10.6,30.01,SW,224,3.0,8.0,50,0.00,FEW,,0.00,316.0,WeatherDisplay:10.37,2013-01-21 17:29:00,
2013-01-21 12:59:00,27.5,10.8,30.00,South,187,0.0,8.0,49,0.00,CLR,,0.00,272.0,WeatherDisplay:10.37,2013-01-21 17:59:00,
2013-01-21 13:29:00,27.3,10.1,29.98,SSE,168,0.0,6.0,48,0.00,SCT,,0.00,183.0,WeatherDisplay:10.37,2013-01-21 18:29:00,
2013-01-21 13:59:00,27.3,10.6,29.97,South,179,2.0,9.0,49,0.00,BKN,,0.00,139.0,WeatherDisplay:10.37,2013-01-21 18:59:00,
2013-01-21 14:29:00,27.4,11.7,29.97,South,181,2.0,9.0,51,0.00,BKN,,0.00,113.0,WeatherDisplay:10.37,2013-01-21 19:29:00,
2013-01-21 14:59:00,27.3,11.5,29.97,SSE,162,1.0,9.0,51,0.00,BKN,,0.00,86.0,WeatherDisplay:10.37,2013-01-21 19:59:00,
2013-01-21 15:29:00,27.2,11.9,29.96,SSW,205,0.0,6.0,52,0.00,BKN,,0.00,51.0,WeatherDisplay:10.37,2013-01-21 20:29:00,
2013-01-21 15:59:00,26.7,11.8,29.95,SSW,195,0.0,8.0,53,0.00,BKN,,0.00,33.0,WeatherDisplay:10.37,2013-01-21 20:59:00,
2013-01-21 16:29:00,26.1,12.5,29.94,South,174,2.0,9.0,56,0.00,BKN,,0.00,7.0,WeatherDisplay:10.37,2013-01-21 21:29:00,
2013-01-21 16:59:00,25.8,12.6,29.94,SSE,149,0.0,9.0,57,0.00,CLR,,0.00,0.0,WeatherDisplay:10.37,2013-01-21 21:59:00,
2013-01-21 17:29:00,25.6,14.4,29.94,SSW,192,0.0,6.0,62,0.00,CLR,,0.00,0.0,WeatherDisplay:10.37,2013-01-21 22:29:00,
2013-01-21 17:59:00,24.9,16.8,29.94,SSE,166,0.0,6.0,71,0.00,CLR,,0.00,0.0,WeatherDisplay:10.37,2013-01-21 22:59:00,
2013-01-21 18:29:00,23.9,19.2,29.94,South,185,0.0,3.0,82,0.00,CLR,,0.00,0.0,WeatherDisplay:10.37,2013-01-21 23:29:00,
2013-01-21 18:59:00,23.1,19.5,29.93,South,185,0.0,1.0,86,0.00,CLR,,0.00,0.0,WeatherDisplay:10.37,2013-01-21 23:59:00,
2013-01-21 19:29:00,22.9,19.9,29.93,South,185,0.0,2.0,88,0.00,CLR,,0.00,0.0,WeatherDisplay:10.37,2013-01-22 00:29:00,
2013-01-21 19:59:00,22.7,20.2,29.92,South,185,0.0,1.0,90,0.00,CLR,,0.00,0.0,WeatherDisplay:10.37,2013-01-22 00:59:00,
2013-01-21 20:29:00,22.5,20.0,29.91,South,186,0.0,1.0,90,0.00,CLR,,0.00,0.0,WeatherDisplay:10.37,2013-01-22 01:29:00,
2013-01-21 20:59:00,22.5,20.0,29.91,South,186,0.0,1.0,90,0.00,CLR,,0.00,0.0,WeatherDisplay:10.37,2013-01-22 01:59:00,
2013-01-21 21:29:00,22.4,19.9,29.90,SE,133,0.0,3.0,90,0.00,CLR,,0.00,0.0,WeatherDisplay:10.37,2013-01-22 02:29:00,
2013-01-21 21:59:00,22.0,19.5,29.87,SE,128,0.0,2.0,90,0.00,CLR,,0.00,0.0,WeatherDisplay:10.37,2013-01-22 02:59:00,
2013-01-21 22:29:00,21.7,19.5,29.86,ESE,120,0.0,2.0,91,0.00,CLR,,0.00,0.0,WeatherDisplay:10.37,2013-01-22 03:29:00,
2013-01-21 22:59:00,21.6,19.4,29.84,ESE,119,0.0,1.0,91,0.00,CLR,,0.00,0.0,WeatherDisplay:10.37,2013-01-22 03:59:00,
2013-01-21 23:29:00,21.5,19.3,29.83,NNE,29,0.0,3.0,91,0.00,CLR,,0.00,0.0,WeatherDisplay:10.37,2013-01-22 04:29:00,